Tracking 29892 objects as of 21-Nov-2024
HD Live streaming from Space Station
objects crossing your sky now

STARLINK-5405

Track STARLINK-5405 now!
10-day predictions
STARLINK-5405 is classified as:


NORAD ID: 54863
Int'l Code: 2022-177AV
Perigee: 565.1 km
Apogee: 567.4 km
Inclination: 43.0 °
Period: 95.8 minutes
Semi major axis: 6937 km
RCS: Unknown
Launch date: December 28, 2022
Source: United States (US)
Launch site: AIR FORCE EASTERN TEST RANGE (AFETR)
Your satellite tracking list
Your tracking list is empty




NASA's NSSDC Master Catalog

Two Line Element Set (TLE):
1 54863U 22177AV  24325.95539331 -.00000044  00000-0  11855-4 0  9992
2 54863  43.0022 174.4340 0001659 236.8198 123.2486 15.02533855104862
Source of the keplerian elements: AFSPC